Location: Aulnoy
(48.8410°N, 3.0967°E)
Time: 02:48:30
(UTC+00:00)

BREEZE-M DEB (TANK) - Visible Passes

Search period start: 25 July 2024 00:00
Search period end: 04 August 2024 00:00
Orbit: 658 x 22269 km, 51.1° (Epoch: 24 July)

Date Brightness Start Highest point End Pass type
(mag) Time Alt. Az. Time Alt. Az. Time Alt. Az.
25 Jul 9.0 04:09:12 10° NW 05:32:04 16° NW 06:42:51 10° WNW visible
25 Jul 8.5 15:09:07 10° S 16:11:59 60° E 20:08:26 10° ENE visible
25 Jul 8.0 22:19:11 10° WNW 01:59:08 60° W 03:21:51 10° S visible
26 Jul 8.7 17:34:06 10° SW 19:07:25 88° SE 22:55:19 10° ESE visible
27 Jul 8.2 01:22:35 10° NW 03:58:54 32° WNW 05:31:47 10° WSW visible
27 Jul 8.2 20:08:16 10° W 23:47:46 82° WSW 01:27:05 10° SSE visible
28 Jul 8.6 15:37:16 10° SSW 16:40:32 69° ESE 20:45:42 10° E visible
28 Jul 8.0 22:56:26 10° WNW 02:21:27 52° W 03:48:39 10° SSW visible
29 Jul 8.5 18:04:44 10° SW 20:10:21 87° NNW 23:27:26 10° SE visible
30 Jul 8.5 02:06:16 10° NW 04:14:59 25° WNW 05:48:10 10° W visible
30 Jul 8.1 20:42:08 10° W 00:24:05 73° WSW 01:56:10 10° SSE visible
31 Jul 8.8 16:06:12 10° SSW 17:14:01 78° ESE 21:21:16 10° E visible
31 Jul 8.1 23:35:02 10° WNW 02:40:13 43° WNW 04:13:50 10° SW visible
01 Aug 8.3 18:36:09 10° WSW 21:36:13 89° NNE 23:58:34 10° SE visible
02 Aug 8.9 02:53:03 10° NW 04:31:31 19° NW 05:55:23 10° WNW visible
02 Aug 8.0 21:17:06 10° WNW 00:53:19 65° W 02:24:22 10° S visible
03 Aug 8.7 16:35:49 10° SW 17:53:58 85° SE 21:55:19 10° ESE visible
